User: anonymous   Login
Location: Unspecified
(0.0000°N, 0.0000°E)
Time: 01:19:25
(UTC+00:00)
Language:

WGS F2 (USA 204) - Orbit

View from above orbital plane
View from above orbital plane
View from above satellite
View from above satellite

Ground track
Ground track

The orbit data is extracted from the following two-line orbital elements,

1 34713U 09017A   16031.63903021 0.00000000  00000-0  00000-0 0    03
2 34713   0.0100  60.5276 0002340 328.6556  31.3328  1.00270000    01
Epoch (UTC): 31 January 2016 15:20:12
Eccentricity: 0.0002340
inclination: 0.0100°
perigee height: 35777 km
apogee height: 35796 km
right ascension of ascending node: 60.5276°
argument of perigee: 328.6556°
revolutions per day: 1.00270000
mean anomaly at epoch: 31.3328°
orbit number at epoch: 0

The dashed part of the orbit path shows where the satellite is in the earth's shadow,  

DLR